TimeEDT,TemperatureF,Dew PointF,Humidity,Sea Level PressureIn,VisibilityMPH,Wind Direction,Wind SpeedMPH,Gust SpeedMPH,PrecipitationIn,Events,Conditions,WindDirDegrees,DateUTC
12:53 AM,33.1,30.0,89,30.45,9.0,Calm,Calm,-,N/A,,Clear,0,2012-10-13 04:53:00
1:53 AM,30.0,28.0,92,30.45,10.0,Calm,Calm,-,N/A,,Clear,0,2012-10-13 05:53:00
2:53 AM,30.0,28.0,92,30.45,10.0,Calm,Calm,-,N/A,,Clear,0,2012-10-13 06:53:00
3:53 AM,28.9,27.0,92,30.46,10.0,Calm,Calm,-,N/A,,Clear,0,2012-10-13 07:53:00
4:53 AM,28.0,26.1,92,30.48,10.0,Calm,Calm,-,N/A,,Clear,0,2012-10-13 08:53:00
5:53 AM,28.0,26.1,92,30.49,10.0,Calm,Calm,-,N/A,,Clear,0,2012-10-13 09:53:00
6:53 AM,27.0,25.0,92,30.50,10.0,Calm,Calm,-,N/A,,Clear,0,2012-10-13 10:53:00
7:53 AM,28.0,26.1,92,30.52,10.0,Calm,Calm,-,N/A,,Clear,0,2012-10-13 11:53:00
8:53 AM,35.1,30.0,82,30.52,10.0,Calm,Calm,-,N/A,,Clear,0,2012-10-13 12:53:00
9:53 AM,43.0,28.0,56,30.53,10.0,Calm,Calm,-,0.01,,Clear,0,2012-10-13 13:53:00
10:53 AM,46.9,24.1,41,30.52,10.0,Calm,Calm,-,N/A,,Clear,0,2012-10-13 14:53:00
11:53 AM,50.0,23.0,35,30.51,10.0,Calm,Calm,-,N/A,,Clear,0,2012-10-13 15:53:00
12:53 PM,51.1,21.9,32,30.48,10.0,Calm,Calm,-,N/A,,Clear,0,2012-10-13 16:53:00
1:53 PM,53.1,21.9,30,30.43,10.0,Calm,Calm,-,N/A,,Clear,0,2012-10-13 17:53:00
2:53 PM,55.0,23.0,29,30.39,10.0,Variable,3.5,-,N/A,,Clear,0,2012-10-13 18:53:00
3:53 PM,55.4,23.0,29,30.37,10.0,SSE,4.6,-,N/A,,Clear,160,2012-10-13 19:53:00
4:53 PM,55.0,21.9,28,30.37,10.0,Variable,3.5,-,N/A,,Clear,0,2012-10-13 20:53:00
5:53 PM,51.1,25.0,36,30.37,10.0,Variable,4.6,-,N/A,,Clear,0,2012-10-13 21:53:00
6:53 PM,46.0,30.9,56,30.36,10.0,Calm,Calm,-,N/A,,Clear,0,2012-10-13 22:53:00
8:53 PM,42.1,33.1,70,30.35,10.0,Calm,Calm,-,N/A,,Clear,0,2012-10-14 00:53:00
9:53 PM,42.8,35.6,76,30.34,10.0,Calm,Calm,-,N/A,,Clear,0,2012-10-14 01:53:00
10:53 PM,42.1,37.0,82,30.33,10.0,Calm,Calm,-,N/A,,Clear,0,2012-10-14 02:53:00
11:53 PM,39.2,37.4,93,30.30,10.0,Calm,Calm,-,N/A,,Clear,0,2012-10-14 03:53:00